Location: Banios
(43.0451°N, 0.2335°E)
Time: 14:19:40
(UTC+00:00)

SR - All Passes

Search period start: 08 May 2021 00:00
Search period end: 18 May 2021 00:00
Orbit: 573 x 882 km, 66.7° (Epoch: 08 May)

Date Brightness Start Highest point End Pass type
(mag) Time Alt. Az. Time Alt. Az. Time Alt. Az.
08 May - 01:50:22 10° SSE 01:55:00 26° ESE 01:59:49 10° NE visible
08 May - 03:31:06 10° SW 03:36:45 55° NW 03:42:36 10° NNE visible
08 May - 05:17:06 10° WNW 05:20:14 14° NNW 05:23:23 10° N daylight
08 May - 10:30:04 10° NNW 10:34:55 27° NE 10:39:29 10° ESE daylight
08 May - 12:11:53 10° NW 12:17:25 56° WSW 12:22:29 10° SSE daylight
09 May - 01:03:04 10° SE 01:05:41 13° ESE 01:08:22 10° ENE visible
09 May - 02:41:07 10° SSW 02:46:52 85° ESE 02:52:51 10° NNE visible
09 May - 04:25:18 10° W 04:29:46 22° NW 04:34:17 10° N daylight
09 May - 09:40:47 10° N 09:44:33 17° NE 09:48:09 10° ENE daylight
09 May - 11:21:58 10° NNW 11:27:41 78° ENE 11:32:54 10° SE daylight
09 May - 13:05:51 10° WNW 13:08:56 15° WSW 13:11:55 10° SW daylight
10 May - 01:51:45 10° S 01:57:11 46° ESE 02:02:51 10° NE visible
10 May - 03:34:12 10° WSW 03:39:29 34° NW 03:44:53 10° NNE visible
10 May - 05:22:52 10° NNW 05:23:29 10° NNW 05:24:04 10° NNW daylight
10 May - 08:52:03 10° N 08:53:58 12° NNE 08:55:51 10° NE daylight
10 May - 10:32:17 10° NNW 10:37:43 43° NE 10:42:44 10° ESE daylight
10 May - 12:14:48 10° NW 12:19:37 30° WSW 12:24:06 10° S daylight
11 May - 01:03:10 10° SSE 01:07:43 25° ESE 01:12:23 10° NE visible
11 May - 02:43:42 10° SW 02:49:24 58° NW 02:55:18 10° NNE visible
11 May - 04:29:31 10° WNW 04:32:49 15° NNW 04:36:09 10° N daylight
11 May - 09:42:48 10° NNW 09:47:32 26° NE 09:51:59 10° E daylight
11 May - 11:24:32 10° NW 11:30:05 60° WSW 11:35:09 10° SSE daylight
12 May - 00:16:08 10° SE 00:18:25 12° E 00:20:43 10° ENE visible
12 May - 01:53:47 10° SSW 01:59:32 80° ESE 02:05:31 10° NNE visible
12 May - 03:37:48 10° W 03:42:22 23° NW 03:47:00 10° N visible
12 May - 08:53:33 10° N 08:57:08 17° NE 09:00:34 10° ENE daylight
12 May - 10:34:39 10° NNW 10:40:20 73° ENE 10:45:31 10° SE daylight
12 May - 12:18:20 10° WNW 12:21:39 16° WSW 12:24:49 10° SW daylight
13 May - 01:04:29 10° S 01:09:53 43° ESE 01:15:28 10° NE visible
13 May - 02:46:45 10° WSW 02:52:07 36° NW 02:57:35 10° NNE visible
13 May - 04:34:52 10° NW 04:36:02 11° NNW 04:37:12 10° NNW daylight
13 May - 08:04:58 10° N 08:06:32 11° NNE 08:08:04 10° NE daylight
13 May - 09:44:58 10° NNW 09:50:20 40° NE 09:55:17 10° ESE daylight
13 May - 11:27:25 10° NW 11:32:19 32° WSW 11:36:50 10° S daylight
14 May - 00:16:00 10° SSE 00:20:25 23° ESE 00:24:58 10° NE visible
14 May - 01:56:19 10° SW 02:02:03 62° NW 02:07:59 10° NNE visible
14 May - 03:41:56 10° WNW 03:45:24 16° NW 03:48:53 10° N visible
14 May - 08:55:31 10° NNW 09:00:07 24° NE 09:04:28 10° E daylight
14 May - 10:37:12 10° NW 10:42:45 64° WSW 10:47:49 10° SSE daylight
14 May - 23:29:18 10° ESE 23:31:08 11° E 23:32:59 10° E visible
15 May - 01:06:27 10° SSW 01:12:13 76° ESE 01:18:10 10° NE visible
15 May - 02:50:18 10° W 02:54:59 24° NW 02:59:42 10° N visible
15 May - 08:06:19 10° N 08:09:42 16° NE 08:12:58 10° ENE daylight
15 May - 09:47:20 10° NNW 09:52:59 69° ENE 09:58:08 10° SE daylight
15 May - 11:30:51 10° WNW 11:34:21 17° WSW 11:37:41 10° SW daylight
16 May - 00:17:13 10° S 00:22:34 41° ESE 00:28:06 10° NE visible
16 May - 01:59:19 10° WSW 02:04:44 38° NW 02:10:16 10° NNE visible
16 May - 03:47:04 10° NW 03:48:36 11° NNW 03:50:10 10° NNW visible
16 May - 07:18:01 10° NNE 07:19:06 10° NNE 07:20:10 10° NE daylight
16 May - 08:57:41 10° NNW 09:02:58 38° NE 09:07:50 10° ESE daylight
16 May - 10:40:01 10° NW 10:44:59 34° WSW 10:49:34 10° S daylight
16 May - 23:28:50 10° SSE 23:33:07 22° ESE 23:37:31 10° ENE visible
17 May - 01:08:56 10° SW 01:14:42 65° WNW 01:20:39 10° NNE visible
17 May - 02:54:22 10° WNW 02:58:00 16° NW 03:01:38 10° N visible
17 May - 08:08:15 10° N 08:12:44 23° NE 08:16:57 10° E daylight
17 May - 09:49:51 10° NW 09:55:25 68° WSW 10:00:29 10° SSE daylight
17 May - 22:42:40 10° ESE 22:43:51 11° E 22:45:02 10° E visible
